Home   Weather   Kirkenes   Past weeks

Flag for Norway Past Weather in Kirkenes, Norway — Yesterday and Last 2 Weeks

Now
23 °F

Cold.


Feels Like: 23 °F
Forecast: 16 / 33 °F
Wind: 2 mph from Southwest

Location: Kirkenes Lufthavn

Current Time: Apr 25, 2017 at 3:22:10 am

Latest Report: Apr 25, 2017 at 2:00 am


Visibility: N/A

Pressure: 29.87 "Hg

Humidity: 93%

Dew Point: 21 °F

Location of KirkenesLocation

Past Weather in Kirkenes — Graph

°F

Kirkenes Temperature Yesterday

Maximum temperature yesterday: 33 °F (at 10:00 am)
Minimum temperature yesterday: 17 °F (at 4:00 am)
Average temperature yesterday: 26 °F

High & Low Weather Summary for the Past Weeks

 TemperatureHumidityPressure
High38 °F (Apr 20, 3:00 pm)96% (Apr 11, 10:00 pm)30.31 "Hg (Apr 11, 10:00 pm)
Low6 °F (Apr 10, 5:00 am)50% (Apr 10, 11:00 am)29.21 "Hg (Apr 21, 4:00 am)
Average27 °F77%29.81 "Hg
* Reported Apr 10 2:00 am — Apr 25 2:00 am, Kirkenes, Weather by CustomWeather, © 2017

Note: Actual official high and low records may vary slightly from our data, if they occured in-between our weather recording intervals... More about our weather records

Advertising

Kirkenes Weather History for the Previous 24 Hours

Scroll right to see more
 ConditionsComfort  
Time TempWeatherWind HumidityBarometerVisibility
2:00 am
Tue, Apr 25
23 °FCold.2 mph93%29.87 "HgN/A
1:00 am23 °FCold.3 mph94%29.87 "HgN/A
12:00 am24 °FCold.1 mph93%29.87 "HgN/A
11:00 pm
Mon, Apr 24
23 °FCold.1 mph92%29.86 "HgN/A
8:00 pm28 °FChilly.2 mph83%29.85 "HgN/A
7:00 pm28 °FChilly.3 mph72%29.85 "HgN/A
6:00 pm29 °FChilly.3 mph72%29.84 "HgN/A
5:00 pm29 °FChilly.3 mph71%29.84 "HgN/A
4:00 pm31 °FChilly.2 mph70%29.84 "HgN/A
3:00 pm31 °FChilly.5 mph73%29.84 "HgN/A
2:00 pm31 °FChilly.3 mph68%29.83 "HgN/A
1:00 pm31 °FChilly.3 mph63%29.83 "HgN/A
12:00 pm32 °FChilly.2 mph58%29.83 "HgN/A
11:00 am30 °FChilly.1 mph62%29.83 "HgN/A
10:00 am33 °FChilly.No wind54%29.82 "HgN/A
9:00 am29 °FChilly.No wind59%29.82 "HgN/A
8:00 am25 °FChilly.1 mph67%29.81 "HgN/A
7:00 am23 °FCold.No wind72%29.81 "HgN/A
6:00 am20 °FCold.1 mph79%29.80 "HgN/A
5:00 am19 °FCold.1 mph84%29.80 "HgN/A
4:00 am17 °FCold.2 mph89%29.80 "HgN/A
3:00 am18 °FCold.2 mph86%29.79 "HgN/A
Weather by CustomWeather, © 2017

See weather overviewHow to use our weather pages